This is the latest recevied weather packets stored in our database for station/object OK0EK-11. If no packets are shown the sender has not sent any weather packets the latest 10 day(s).
| Time | Temp. | Humidity | Pressure | Rain* | Wind** | Luminosity | Snow |
|---|---|---|---|---|---|---|---|
| 1787581451 | 20.56° C | 32% | 1022.1 hPa | - | - | - | - |
| 1787580852 | 20° C | 32% | 1022.2 hPa | - | - | - | - |
| 1787580252 | 20.56° C | 33% | 1022.3 hPa | - | - | - | - |
| 1787579652 | 20° C | 32% | 1022.4 hPa | - | - | - | - |
| 1787579052 | 19.44° C | 34% | 1022.4 hPa | - | - | - | - |
| 1787578453 | 20° C | 35% | 1022.4 hPa | - | - | - | - |
| 1787577854 | 20° C | 35% | 1022.4 hPa | - | - | - | - |
| 1787577254 | 20.56° C | 38% | 1022.4 hPa | - | - | - | - |
| 1787576654 | 19.44° C | 38% | 1022.4 hPa | - | - | - | - |
| 1787576055 | 19.44° C | 38% | 1022.6 hPa | - | - | - | - |
| 1787575455 | 19.44° C | 38% | 1022.6 hPa | - | - | - | - |
| 1787574855 | 19.44° C | 40% | 1022.7 hPa | - | - | - | - |
| 1787574255 | 18.89° C | 38% | 1022.7 hPa | - | - | - | - |
| 1787573656 | 19.44° C | 37% | 1022.8 hPa | - | - | - | - |
| 1787573056 | 17.78° C | 42% | 1022.8 hPa | - | - | - | - |
| 1787572456 | 18.89° C | 41% | 1022.8 hPa | - | - | - | - |
| 1787571856 | 19.44° C | 39% | 1022.9 hPa | - | - | - | - |
| 1787571257 | 18.89° C | 42% | 1023 hPa | - | - | - | - |
| 1787570657 | 18.33° C | 42% | 1022.9 hPa | - | - | - | - |
| 1787570057 | 18.33° C | 43% | 1022.9 hPa | - | - | - | - |
| 1787569457 | 18.33° C | 43% | 1022.9 hPa | - | - | - | - |
| 1787568858 | 17.78° C | 45% | 1022.8 hPa | - | - | - | - |
| 1787568258 | 17.22° C | 46% | 1022.8 hPa | - | - | - | - |
| 1787567658 | 17.78° C | 45% | 1022.9 hPa | - | - | - | - |
| 1787567096 | 17.78° C | 45% | 1022.9 hPa | - | - | - | - |
* Rain since midnight (hover to see other rain measurements)
** Current wind speed in m/s (hover to see current wind gust speed)